Location: Arboucave
(43.6130°N, 0.4343°W)
Time: 13:01:48
(UTC+00:00)

CZ-2D R/B - Pass Details

Date: 17 November 2025
Orbit: 404 x 413 km, 97.4° (Epoch: 06 December)

Event Time Altitude Azimuth Distance (km) Brightness Sun altitude
Rises 17:09:13 0° 150° (SSE) 2,330 6.4 -6.6°
Reaches altitude 10° 17:11:17 10° 141° (SE) 1,471 5.3 -6.9°
Maximum altitude 17:14:12 36° 73° (ENE) 664 3.2 -7.4°
Drops below altitude 10° 17:17:08 10° 5° (N) 1,477 5.3 -7.9°
Sets 17:19:12 0° 356° (N) 2,342 6.4 -8.3°
